Location: Newark
(25.0000°N, 73.5000°E)
Time: 23:48:28
(UTC+00:00)

S-56A Canister/Altair - All Passes

Search period start: 30 July 2021 00:00
Search period end: 09 August 2021 00:00
Orbit: 631 x 2501 km, 38.9° (Epoch: 30 July)

Date Brightness Start Highest point End Pass type
(mag) Time Alt. Az. Time Alt. Az. Time Alt. Az.
30 Jul - 06:09:58 10° SSE 06:15:16 15° SE 06:21:21 10° E daylight
30 Jul - 08:08:07 10° SW 08:19:15 59° SE 08:33:45 10° ENE daylight
30 Jul - 10:12:45 10° WSW 10:26:02 68° NNW 10:41:13 10° ENE daylight
30 Jul - 12:20:58 10° WNW 12:35:10 47° N 12:48:27 10° ENE daylight
30 Jul - 14:29:58 10° WNW 14:44:32 53° NNE 14:55:46 10° E visible
30 Jul - 16:37:59 10° WNW 16:51:41 83° SW 17:00:54 10° SE visible
30 Jul - 18:47:36 10° W 18:55:30 23° SW 19:01:33 10° S visible
31 Jul - 05:40:48 10° SE 05:42:24 10° ESE 05:44:04 10° ESE daylight
31 Jul - 07:35:38 10° SSW 07:46:00 52° SE 07:59:50 10° ENE daylight
31 Jul - 09:39:34 10° WSW 09:52:18 72° NNW 10:07:37 10° ENE daylight
31 Jul - 11:47:16 10° W 12:01:14 48° N 12:15:01 10° ENE daylight
31 Jul - 13:56:08 10° WNW 14:10:47 51° NNE 14:22:40 10° E visible
31 Jul - 16:04:08 10° WNW 16:18:26 89° NE 16:28:19 10° SE visible
31 Jul - 18:13:13 10° WNW 18:22:46 29° SW 18:29:50 10° S visible
01 Aug - 07:03:17 10° SSW 07:12:52 44° SE 07:25:49 10° ENE daylight
01 Aug - 09:06:32 10° WSW 09:18:38 77° NNW 09:33:59 10° ENE daylight
01 Aug - 11:13:40 10° W 11:27:18 49° N 11:41:30 10° ENE daylight
01 Aug - 13:22:21 10° WNW 13:36:58 50° N 13:49:25 10° E daylight
01 Aug - 15:30:18 10° WNW 15:45:03 83° NNE 15:55:37 10° ESE visible
01 Aug - 17:38:57 10° WNW 17:49:57 35° SW 17:57:53 10° SSE visible
02 Aug - 06:31:06 10° SSW 06:39:50 37° SE 06:51:42 10° ENE daylight
02 Aug - 08:33:37 10° WSW 08:45:04 83° NNW 09:00:15 10° ENE daylight
02 Aug - 10:40:12 10° W 10:53:22 50° NNW 11:07:54 10° ENE daylight
02 Aug - 12:48:37 10° WNW 13:03:05 49° N 13:16:05 10° E daylight
02 Aug - 14:56:31 10° WNW 15:11:35 77° NNE 15:22:49 10° ESE visible
02 Aug - 17:04:50 10° WNW 17:17:02 43° SW 17:25:47 10° SSE visible
03 Aug - 05:59:04 10° S 06:06:55 31° SE 06:17:27 10° ENE daylight
03 Aug - 08:00:51 10° SW 08:11:36 90° NNW 08:26:28 10° ENE daylight
03 Aug - 10:06:50 10° W 10:19:30 52° NNW 10:34:13 10° ENE daylight
03 Aug - 12:14:57 10° WNW 12:29:09 48° N 12:42:38 10° ENE daylight
03 Aug - 14:22:46 10° WNW 14:38:00 71° NNE 14:49:53 10° ESE visible
03 Aug - 16:30:47 10° WNW 16:44:00 50° SW 16:53:31 10° SSE visible
04 Aug - 05:27:15 10° S 05:34:06 25° SE 05:43:04 10° E daylight
04 Aug - 07:28:11 10° SW 07:38:15 83° SE 07:52:39 10° ENE daylight
04 Aug - 09:33:36 10° W 09:45:41 54° NNW 10:00:29 10° ENE daylight
04 Aug - 11:41:23 10° WNW 11:55:13 47° N 12:09:04 10° ENE daylight
04 Aug - 13:49:04 10° WNW 14:04:19 67° NNE 14:16:51 10° ESE visible
04 Aug - 15:56:49 10° WNW 16:10:51 58° SW 16:21:09 10° SSE visible
04 Aug - 18:09:45 10° W 18:14:29 13° WSW 18:18:39 10° SSW visible
05 Aug - 04:55:43 10° SSE 05:01:22 19° SE 05:08:27 10° E daylight
05 Aug - 06:55:38 10° SW 07:05:01 75° SE 07:18:47 10° ENE daylight
05 Aug - 09:00:29 10° W 09:11:57 56° NNW 09:26:42 10° ENE daylight
05 Aug - 11:07:55 10° WNW 11:21:15 46° N 11:35:23 10° ENE daylight
05 Aug - 13:15:27 10° WNW 13:30:34 63° NNE 13:43:40 10° ESE daylight
05 Aug - 15:22:56 10° WNW 15:37:35 66° SW 15:48:37 10° SE visible
05 Aug - 17:34:09 10° W 17:41:39 18° SW 17:47:55 10° SSW visible
06 Aug - 04:24:44 10° SSE 04:28:42 14° SE 04:33:21 10° E daylight
06 Aug - 06:23:11 10° SW 06:31:54 66° SE 06:44:54 10° ENE daylight
06 Aug - 08:27:29 10° W 08:38:18 59° NNW 08:52:52 10° ENE daylight
06 Aug - 10:34:31 10° WNW 10:47:19 46° N 11:01:37 10° ENE daylight
06 Aug - 12:41:54 10° WNW 12:56:45 60° NNE 13:10:21 10° E daylight
06 Aug - 14:49:07 10° WNW 15:04:13 73° SW 15:15:58 10° SE visible
06 Aug - 16:59:14 10° W 17:08:44 23° SW 17:16:28 10° S visible
07 Aug - 05:50:52 10° SW 05:58:55 57° SE 06:10:59 10° ENE daylight
07 Aug - 07:54:36 10° WSW 08:04:44 62° NNW 08:19:01 10° ENE daylight
07 Aug - 10:01:14 10° WNW 10:13:26 46° N 10:27:46 10° ENE daylight
07 Aug - 12:08:26 10° WNW 12:22:53 57° NNE 12:36:54 10° E daylight
07 Aug - 14:15:25 10° WNW 14:30:44 81° SW 14:43:10 10° SE visible
07 Aug - 16:24:41 10° WNW 16:35:45 28° SW 16:44:39 10° S visible
08 Aug - 05:18:39 10° SSW 05:26:02 48° SE 05:37:02 10° ENE daylight
08 Aug - 07:21:48 10° WSW 07:31:19 66° NNW 07:45:09 10° ENE daylight
08 Aug - 09:28:03 10° WNW 09:39:35 45° N 09:53:50 10° ENE daylight
08 Aug - 11:35:02 10° WNW 11:49:00 54° NNE 12:03:18 10° E daylight
08 Aug - 13:41:47 10° WNW 13:57:10 88° SSW 14:10:15 10° SE visible
08 Aug - 15:50:21 10° WNW 16:02:39 34° SW 16:12:36 10° S visible
